Weather History for Stanley, ND

Change the Weather History Date:

Thursday, February 21, 2013

  Actual Average (KMOT) Record (KMOT)
Temperature  
Mean Temperature 14 °F 19 °F  
Max Temperature 19 °F 27 °F 54 °F (1961)
Min Temperature 10 °F 11 °F -33 °F (1918)
Degree Days  
Heating Degree Days 50 46  
Month to date heating degree days 1030  
Since 1 July heating degree days 6262  
Moisture  
Dew Point 13 °F    
Average Humidity 92    
Maximum Humidity 100    
Minimum Humidity 85    
Precipitation  
Precipitation 0.00 in 0.02 in 0.56 in (1980)
Month to date precipitation 0.28  
Year to date precipitation 0.79  
Sea Level Pressure  
Sea Level Pressure 30.04 in    
Wind  
Wind Speed 11 mph (SSE)    
Max Wind Speed 16 mph    
Max Gust Speed -    
Visibility 10 miles    
Events Snow    
T = Trace of Precipitation, MM = Missing Value Source: NWS Daily Summary

Daily Weather History Graph

Daily Weather History Graph

Search for Another Location

Airport:

Trip Planner

Search our weather history database for the weather conditions in past years. The results will help you decide how hot, cold, wet, or windy it might be!

Date:

Astronomy

Feb. 21, 2013 Rise Set
Actual Time 7:45 AM CST 6:21 PM CST
Civil Twilight 7:13 AM CST 6:53 PM CST
Nautical Twilight 6:37 AM CST 7:29 PM CST
Astronomical Twilight 6:01 AM CST 8:05 PM CST
Moon 2:26 PM CST (2/21) 5:04 AM CST (2/21)
Length of Visible Light 11h 39m
Length of Day
10h 36m
Waxing Gibbous, 84% of the Moon is Illuminated
Feb 21
Waxing Gibbous
Feb 25
Full
Mar 4
Last Quarter
Mar 11
New
Mar 19
First Quarter

Hourly Weather History & Observations

Time (CST) Temp. Windchill Dew Point Humidity Pressure Visibility Wind Dir Wind Speed Gust Speed Precip Events Conditions
12:15 AM 10.4 °F -2.4 °F 6.8 °F 85% 30.04 in 10.0 mi SE 9.2 mph - N/A   Overcast
12:35 AM 10.4 °F -4.1 °F 6.8 °F 85% 30.04 in 10.0 mi SSE 11.5 mph - N/A   Overcast
12:55 AM 10.4 °F -4.8 °F 6.8 °F 85% 30.03 in 10.0 mi SSE 12.7 mph - N/A   Overcast
1:15 AM 10.4 °F -1.5 °F 8.6 °F 92% 30.04 in 10.0 mi SE 8.1 mph - N/A   Overcast
1:35 AM 10.4 °F -2.4 °F 8.6 °F 92% 30.04 in 10.0 mi SE 9.2 mph - N/A   Overcast
1:55 AM 10.4 °F -3.3 °F 8.6 °F 92% 30.04 in 10.0 mi SE 10.4 mph - N/A   Overcast
2:15 AM 10.4 °F -4.1 °F 8.6 °F 92% 30.05 in 10.0 mi SE 11.5 mph - N/A   Overcast
2:35 AM 10.4 °F -3.3 °F 6.8 °F 85% 30.05 in 10.0 mi SE 10.4 mph - N/A   Overcast
2:55 AM 10.4 °F -3.3 °F 8.6 °F 92% 30.05 in 10.0 mi SE 10.4 mph - N/A   Overcast
3:15 AM 10.4 °F -4.8 °F 8.6 °F 92% 30.05 in 10.0 mi SE 12.7 mph - N/A   Overcast
3:35 AM 10.4 °F -3.3 °F 8.6 °F 92% 30.05 in 10.0 mi SSE 10.4 mph - N/A   Overcast
3:55 AM 10.4 °F -4.1 °F 8.6 °F 92% 30.05 in 10.0 mi SSE 11.5 mph - N/A   Overcast
4:15 AM 10.4 °F -4.1 °F 8.6 °F 92% 30.05 in 10.0 mi SSE 11.5 mph - N/A Snow Light Snow
4:35 AM 10.4 °F -3.3 °F 8.6 °F 92% 30.04 in 10.0 mi SSE 10.4 mph - N/A Snow Light Snow
4:55 AM 12.2 °F -0.2 °F 8.6 °F 85% 30.05 in 10.0 mi SSE 9.2 mph - N/A Snow Light Snow
5:15 AM 12.2 °F -1.8 °F 8.6 °F 85% 30.05 in 10.0 mi SSE 11.5 mph - N/A   Overcast
5:55 AM 12.2 °F -0.2 °F 8.6 °F 85% 30.05 in 10.0 mi SSE 9.2 mph - N/A   Overcast
6:15 AM 12.2 °F -0.2 °F 10.4 °F 92% 30.05 in 10.0 mi SSE 9.2 mph - N/A Snow Light Snow
6:35 AM 12.2 °F -1.8 °F 10.4 °F 92% 30.05 in 9.0 mi SSE 11.5 mph - N/A Snow Light Snow
6:55 AM 12.2 °F -1.0 °F 10.4 °F 92% 30.05 in 10.0 mi SSE 10.4 mph - N/A Snow Light Snow
7:15 AM 12.2 °F -0.2 °F 10.4 °F 92% 30.06 in 10.0 mi SSE 9.2 mph - N/A   Overcast
7:35 AM 14.0 °F 2.9 °F 10.4 °F 86% 30.06 in 10.0 mi SSE 8.1 mph - N/A   Overcast
7:55 AM 14.0 °F 2.0 °F 10.4 °F 86% 30.06 in 10.0 mi SSE 9.2 mph - N/A   Overcast
8:15 AM 14.0 °F 2.9 °F 10.4 °F 86% 30.06 in 10.0 mi SSE 8.1 mph - N/A Snow Light Snow
8:35 AM 14.0 °F 1.2 °F 10.4 °F 86% 30.06 in 10.0 mi SSE 10.4 mph - N/A Snow Light Snow
8:55 AM 14.0 °F 1.2 °F 10.4 °F 86% 30.06 in 10.0 mi SSE 10.4 mph - N/A   Overcast
9:15 AM 14.0 °F 1.2 °F 10.4 °F 86% 30.06 in 5.0 mi SSE 10.4 mph - N/A Snow Light Snow
9:35 AM 14.0 °F 1.2 °F 12.2 °F 93% 30.07 in - SSE 10.4 mph - N/A Snow Heavy Snow
9:55 AM 14.0 °F 3.9 °F 12.2 °F 93% 30.08 in - South 6.9 mph - N/A Snow Heavy Snow
10:15 AM 14.0 °F 1.2 °F 12.2 °F 93% 30.08 in - SSE 10.4 mph - N/A Snow Heavy Snow
10:35 AM 15.8 °F 5.1 °F 12.2 °F 86% 30.08 in 10.0 mi South 8.1 mph - N/A   Overcast
10:55 AM 15.8 °F 2.1 °F 14.0 °F 93% 30.08 in 10.0 mi SSE 12.7 mph - N/A Snow Light Snow
11:15 AM 15.8 °F 2.1 °F 14.0 °F 93% 30.07 in 10.0 mi SSE 12.7 mph - N/A   Overcast
11:35 AM 15.8 °F 3.4 °F 14.0 °F 93% 30.07 in 10.0 mi South 10.4 mph - N/A   Overcast
11:55 AM 15.8 °F 2.1 °F 14.0 °F 93% 30.06 in - SSE 12.7 mph - N/A Snow Heavy Snow
12:15 PM 15.8 °F 2.1 °F 14.0 °F 93% 30.07 in - SSE 12.7 mph - N/A   Overcast
12:35 PM 17.6 °F 4.3 °F 14.0 °F 86% 30.06 in - SSE 12.7 mph - N/A   Overcast
12:55 PM 17.6 °F 4.3 °F 14.0 °F 86% 30.06 in - SSE 12.7 mph - N/A   Overcast
1:15 PM 17.6 °F 4.3 °F 15.8 °F 93% 30.05 in - South 12.7 mph - N/A   Overcast
1:35 PM 17.6 °F 4.3 °F 15.8 °F 93% 30.05 in - SSE 12.7 mph - N/A   Unknown
1:55 PM 17.6 °F 3.7 °F 15.8 °F 93% 30.05 in - SSE 13.8 mph - N/A   Unknown
2:15 PM 17.6 °F 4.3 °F 15.8 °F 93% 30.05 in - SSE 12.7 mph - N/A   Unknown
2:35 PM 17.6 °F 4.3 °F 15.8 °F 93% 30.05 in - SSE 12.7 mph - N/A   Mostly Cloudy
2:55 PM 17.6 °F 3.7 °F 15.8 °F 93% 30.04 in - SSE 13.8 mph - N/A   Unknown
3:15 PM 17.6 °F 5.0 °F 15.8 °F 93% 30.05 in - SSE 11.5 mph - N/A   Overcast
3:35 PM 19.4 °F 7.9 °F 15.8 °F 86% 30.04 in - SSE 10.4 mph - N/A   Overcast
3:55 PM 19.4 °F 7.2 °F 17.6 °F 93% 30.04 in 10.0 mi SSE 11.5 mph - N/A   Mostly Cloudy
4:15 PM 19.4 °F 6.0 °F 17.6 °F 93% 30.03 in 10.0 mi SE 13.8 mph - N/A   Mostly Cloudy
4:35 PM 19.4 °F 7.2 °F 17.6 °F 93% 30.03 in 10.0 mi SSE 11.5 mph - N/A   Mostly Cloudy
4:55 PM 19.4 °F 7.2 °F 17.6 °F 93% 30.03 in 10.0 mi SSE 11.5 mph - N/A   Overcast
5:15 PM 19.4 °F 7.9 °F 17.6 °F 93% 30.03 in 10.0 mi SSE 10.4 mph - N/A   Overcast
5:35 PM 19.4 °F 8.6 °F 17.6 °F 93% 30.03 in 10.0 mi SE 9.2 mph - N/A Snow Light Snow
5:55 PM 17.6 °F 5.0 °F 17.6 °F 100% 30.03 in 10.0 mi SSE 11.5 mph - N/A Snow Light Snow
6:15 PM 17.6 °F 6.4 °F 15.8 °F 93% 30.02 in 10.0 mi SSE 9.2 mph - N/A Snow Light Snow
6:35 PM 17.6 °F 5.0 °F 17.6 °F 100% 30.02 in 10.0 mi SSE 11.5 mph - N/A   Overcast
6:55 PM 17.6 °F 5.0 °F 17.6 °F 100% 30.02 in 10.0 mi SSE 11.5 mph - N/A Snow Light Snow
7:15 PM 17.6 °F 5.7 °F 17.6 °F 100% 30.02 in 10.0 mi SSE 10.4 mph - N/A   Overcast
7:35 PM 17.6 °F 5.7 °F 17.6 °F 100% 30.02 in 10.0 mi SSE 10.4 mph - N/A   Overcast
7:55 PM 17.6 °F 5.0 °F 17.6 °F 100% 30.02 in 10.0 mi SSE 11.5 mph - N/A   Overcast
8:15 PM 17.6 °F 5.7 °F 17.6 °F 100% 30.02 in 10.0 mi SSE 10.4 mph - N/A   Overcast
8:35 PM 17.6 °F 4.3 °F 17.6 °F 100% 30.02 in 10.0 mi SSE 12.7 mph - N/A   Overcast
8:55 PM 17.6 °F 3.2 °F 17.6 °F 100% 30.01 in 10.0 mi SSE 15.0 mph - N/A   Overcast
9:15 PM 17.6 °F 3.7 °F 17.6 °F 100% 30.02 in 10.0 mi SSE 13.8 mph - N/A   Overcast
9:35 PM 17.6 °F 3.7 °F 17.6 °F 100% 30.01 in 9.0 mi SSE 13.8 mph - N/A Snow Light Snow
9:55 PM 19.4 °F 6.6 °F 17.6 °F 93% 30.02 in 5.0 mi SSE 12.7 mph - N/A Snow Light Snow
10:15 PM 17.6 °F 4.3 °F 17.6 °F 100% 30.02 in 2.5 mi SSE 12.7 mph - N/A Snow Light Snow
10:35 PM 17.6 °F 4.3 °F 17.6 °F 100% 30.02 in 8.0 mi SSE 12.7 mph - N/A   Mostly Cloudy
10:55 PM 17.6 °F 3.7 °F 15.8 °F 93% 30.01 in 8.0 mi South 13.8 mph - N/A   Overcast
11:15 PM 17.6 °F 2.7 °F 15.8 °F 93% 30.00 in 7.0 mi SSE 16.1 mph - N/A   Overcast
11:35 PM 17.6 °F 3.2 °F 15.8 °F 93% 30.00 in 10.0 mi South 15.0 mph - N/A   Overcast
11:55 PM 17.6 °F 3.2 °F 15.8 °F 93% 29.99 in 10.0 mi South 15.0 mph - N/A   Overcast